Location: Be?chatów
(51.3665°N, 19.3745°E)
Time: 08:32:44
(UTC+00:00)

ASTEX 1 - Pass Details

Date: 19 May 2025
Orbit: 715 x 734 km, 92.7° (Epoch: 16 June)

Event Time Altitude Azimuth Distance (km) Brightness Sun altitude
Rises 23:16:48 0° 1° (N) 3,162 8.3 -18.2°
Reaches altitude 10° 23:19:09 10° 356° (N) 2,239 7.1 -18.1°
Maximum altitude 23:23:54 49° 283° (WNW) 948 3.9 -18.0°
Enters shadow 23:26:11 28° 225° (SW) 1,362 4.3 -17.9°
